Weather reports worldwide

Advertisment
Shap, United Kingdom (3225): temperature & dewpoint: 15.05.2019 04:00:00 - 21.05.2019 04:00:00 (BST)Shap, United Kingdom (3225): temperature -20cm & temperature -100cm: 15.05.2019 04:00:00 - 21.05.2019 04:00:00 (BST)Shap, United Kingdom (3225): wind speed: 15.05.2019 04:00:00 - 21.05.2019 04:00:00 (BST)Shap, United Kingdom (3225): wind direction: 15.05.2019 04:00:00 - 21.05.2019 04:00:00 (BST)Shap, United Kingdom (3225): reduced air pressure: 15.05.2019 04:00:00 - 21.05.2019 04:00:00 (BST)Shap, United Kingdom (3225): visibility: 15.05.2019 04:00:00 - 21.05.2019 04:00:00 (BST)Shap, United Kingdom (3225): sunshine duration: 15.05.2019 04:00:00 - 21.05.2019 04:00:00 (BST)Shap, United Kingdom (3225): precipitation: 15.05.2019 04:00:00 - 21.05.2019 04:00:00 (BST)
Date & Time tt [°C] td [°C] tt -20cm [°C] tt -100cm [°C] ff [km/h] ff [kn] dd ppp [hPa] vv [km] sd [min] rr [mm]
21.05.2019 04:00:00 2,7 2,2 - - 5 3 SSW 1018,1 40 0 0,0
21.05.2019 03:00:00 1,8 1,0 - - 2 1 SSW 1018,1 21 0 0,0
21.05.2019 02:00:00 4,3 3,9 - - 2 1 W 1017,5 40 0 0,0
21.05.2019 01:00:00 4,7 3,4 - - 4 2 NW 1017,4 50 - 0,0
21.05.2019 00:00:00 4,0 3,4 - - 2 1 W 1017,2 60 0 0,0
20.05.2019 23:00:00 4,2 3,4 - - 4 2 WSW 1017,0 50 0 0,0
20.05.2019 22:00:00 6,3 4,8 - - 4 2 SW 1016,4 55 0 0,0
20.05.2019 21:00:00 9,5 7,0 - - 2 1 NE 1015,5 75 30 0,0
20.05.2019 20:00:00 10,5 7,8 - - 8 4 N 1015,3 75 18 0,0
20.05.2019 19:00:00 11,9 8,1 - - 15 8 N 1014,8 75 30 0,0
20.05.2019 18:00:00 12,6 8,3 - - 4 2 WNW 1014,3 16 6 0,2
20.05.2019 17:00:00 11,5 9,1 - - 4 2 WSW 1014,3 40 0 1,8
20.05.2019 16:00:00 12,8 8,8 - - 9 5 SE 1014,1 28 0 0,0
20.05.2019 15:00:00 12,7 8,4 - - 9 5 NNE 1013,8 75 0 0,0
20.05.2019 14:00:00 11,9 9,2 - - 11 6 N 1014,0 3,7 0 0,4
20.05.2019 13:00:00 12,9 7,7 - - 9 5 NNE 1013,4 50 0 0,0
20.05.2019 12:00:00 14,0 7,5 - - 8 4 NE 1013,0 75 18 0,0
20.05.2019 11:00:00 13,0 7,2 - - 11 6 NNE 1013,2 75 48 0,0
20.05.2019 10:00:00 12,6 7,0 11,9 9,9 13 7 N 1013,3 75 54 0,0
20.05.2019 09:00:00 13,1 7,5 - - 8 4 NNW 1013,3 45 54 0,0
20.05.2019 08:00:00 11,0 8,0 - - 13 7 N 1013,2 45 60 0,0
20.05.2019 07:00:00 7,1 6,9 - - 0 0 N 1013,3 35 30 0,0
20.05.2019 06:00:00 4,9 4,4 - - 2 1 W 1013,2 27 0 0,0
20.05.2019 05:00:00 5,3 4,5 - - 0 0 N 1013,0 26 0 0,0
20.05.2019 04:00:00 7,5 6,5 - - 0 0 N 1012,8 25 0 0,0
20.05.2019 03:00:00 8,2 7,0 - - 0 0 N 1012,6 27 0 0,0
20.05.2019 02:00:00 8,8 7,6 - - 0 0 N 1012,7 30 0 0,0
20.05.2019 01:00:00 8,9 7,6 - - 8 4 SE 1012,8 28 - 0,0
20.05.2019 00:00:00 9,1 7,5 - - 4 2 S 1012,9 45 0 0,0
19.05.2019 23:00:00 9,0 7,6 - - 4 2 WSW 1012,8 50 0 0,0
19.05.2019 22:00:00 9,3 7,4 - - 2 1 SSW 1012,4 45 0 0,0
19.05.2019 21:00:00 10,9 8,0 - - 11 6 NNW 1011,9 50 0 0,0
19.05.2019 20:00:00 11,9 8,1 - - 13 7 N 1011,5 75 18 0,0
19.05.2019 19:00:00 11,8 8,0 - - 8 4 NNE 1011,2 75 0 0,0
19.05.2019 18:00:00 12,1 7,8 - - 9 5 NNE 1011,1 75 0 0,0
19.05.2019 17:00:00 13,0 8,2 - - 9 5 E 1010,9 75 0 0,0
19.05.2019 16:00:00 13,0 8,5 - - 11 6 ENE 1010,9 75 12 0,0
19.05.2019 15:00:00 12,2 8,0 - - 13 7 ENE 1010,8 75 0 0,0
19.05.2019 14:00:00 13,5 8,2 - - 11 6 N 1010,4 75 12 0,0
19.05.2019 13:00:00 13,8 7,4 - - 4 2 WNW 1010,3 75 0 0,0
19.05.2019 12:00:00 12,1 8,1 - - 13 7 SW 1010,3 75 0 0,0
19.05.2019 11:00:00 11,9 8,1 - - 16 9 SSW 1010,3 75 36 0,0
19.05.2019 10:00:00 11,9 8,7 11,7 9,7 15 8 SW 1010,1 75 24 0,0
19.05.2019 09:00:00 10,6 8,8 - - 13 7 SW 1009,8 50 0 0,0
19.05.2019 08:00:00 9,5 7,6 - - 8 4 SSW 1009,7 35 0 0,0
19.05.2019 07:00:00 9,6 7,1 - - 13 7 SW 1009,2 55 18 0,0
19.05.2019 06:00:00 8,3 7,6 - - 8 4 S 1009,4 30 6 0,0
19.05.2019 05:00:00 8,6 6,9 - - 8 4 S 1009,4 55 0 0,0
19.05.2019 04:00:00 8,7 7,0 - - 9 5 SSW 1009,3 50 0 0,0
19.05.2019 03:00:00 8,7 7,1 - - 11 6 SSW 1009,1 50 0 0,0
19.05.2019 02:00:00 8,6 7,4 - - 15 8 SSW 1008,9 35 0 0,0
19.05.2019 01:00:00 8,4 7,5 - - 13 7 S 1008,9 19 - 0,0
19.05.2019 00:00:00 8,2 7,3 - - 11 6 SSW 1008,9 14 0 0,0
18.05.2019 23:00:00 9,2 7,0 - - 5 3 S 1008,6 55 0 0,0
18.05.2019 22:00:00 10,4 7,3 - - 8 4 ESE 1008,4 65 0 0,0
18.05.2019 21:00:00 10,5 7,9 - - 5 3 S 1008,0 40 0 0,0
18.05.2019 20:00:00 11,2 9,7 - - 5 3 N 1007,5 30 0 0,0
18.05.2019 19:00:00 11,2 9,6 - - 4 2 NNW 1007,3 7 0 0,2
18.05.2019 18:00:00 12,1 8,5 - - 0 0 N 1007,0 35 0 0,0
18.05.2019 17:00:00 12,3 8,8 - - 4 2 E 1006,8 55 0 0,0
18.05.2019 16:00:00 12,6 8,6 - - 9 5 NE 1006,8 55 0 0,0
18.05.2019 15:00:00 12,2 8,5 - - 9 5 NNE 1006,9 55 0 0,0
18.05.2019 14:00:00 12,7 7,6 - - 9 5 N 1006,8 75 0 0,0
18.05.2019 13:00:00 11,7 7,3 - - 5 3 NE 1007,0 70 0 0,0
18.05.2019 12:00:00 12,1 6,9 - - 4 2 NNW 1006,9 75 0 0,0
18.05.2019 11:00:00 12,0 6,7 - - 4 2 E 1007,2 75 18 0,0
18.05.2019 10:00:00 11,3 6,3 11,7 9,7 5 3 W 1007,4 75 6 0,0
18.05.2019 09:00:00 10,1 6,9 - - 2 1 ESE 1007,9 70 0 0,0
18.05.2019 08:00:00 9,3 7,3 - - 4 2 NNW 1007,9 45 0 0,0
18.05.2019 07:00:00 8,8 7,5 - - 8 4 NW 1008,0 35 0 0,0
18.05.2019 06:00:00 8,2 7,2 - - 5 3 NW 1008,2 22 0 0,0
18.05.2019 05:00:00 8,2 7,1 - - 8 4 NNW 1008,5 30 0 0,0
18.05.2019 04:00:00 8,2 7,1 - - 8 4 NW 1009,1 40 0 0,0
18.05.2019 03:00:00 8,3 7,1 - - 9 5 N 1009,6 50 0 0,0
18.05.2019 02:00:00 8,5 7,1 - - 9 5 N 1009,9 55 0 0,0
18.05.2019 01:00:00 8,8 6,7 - - 11 6 N 1010,1 45 - 0,0
18.05.2019 00:00:00 8,9 5,6 - - 9 5 NNW 1010,6 35 0 0,0
17.05.2019 23:00:00 9,0 5,6 - - 11 6 NNE 1010,8 35 0 0,0
17.05.2019 22:00:00 9,4 5,1 - - 13 7 NNE 1011,1 40 0 0,0
17.05.2019 21:00:00 10,2 5,8 - - 13 7 N 1011,2 45 0 0,0
17.05.2019 20:00:00 12,1 4,4 - - 16 9 NE 1010,8 70 0 0,0
17.05.2019 19:00:00 13,2 6,0 - - 11 6 NNE 1010,9 65 0 0,0
17.05.2019 18:00:00 14,1 5,7 - - 13 7 NE 1011,1 75 0 0,0
17.05.2019 17:00:00 15,1 5,4 - - 18 10 NE 1011,6 65 0 0,0
17.05.2019 16:00:00 15,8 5,9 - - 22 12 NE 1011,9 75 24 0,0
17.05.2019 15:00:00 16,3 4,0 - - 22 12 ENE 1012,2 75 18 0,0
17.05.2019 14:00:00 16,1 4,4 - - 24 13 NE 1012,6 75 30 0,0
17.05.2019 13:00:00 15,3 5,7 - - 18 10 NNE 1013,2 75 30 0,0
17.05.2019 12:00:00 14,7 5,8 - - 18 10 NE 1014,0 75 24 0,0
17.05.2019 11:00:00 13,5 5,4 - - 15 8 N 1014,6 75 12 0,0
17.05.2019 10:00:00 10,9 6,1 11,7 9,4 13 7 NNW 1015,6 50 6 0,0
17.05.2019 09:00:00 10,0 6,5 - - 15 8 NNW 1016,0 40 12 0,0
17.05.2019 08:00:00 8,3 5,7 - - 13 7 N 1016,5 35 0 0,0
17.05.2019 07:00:00 7,4 5,3 - - 11 6 NNW 1016,9 45 0 0,4
17.05.2019 06:00:00 7,7 4,5 - - 2 1 E 1017,3 8 0 0,2
17.05.2019 05:00:00 7,9 4,2 - - 16 9 ENE 1017,5 13 0 0,0
17.05.2019 04:00:00 7,5 3,0 - - 8 4 NNE 1017,9 55 0 0,0
17.05.2019 03:00:00 7,0 2,7 - - 5 3 N 1018,4 55 0 0,0
17.05.2019 02:00:00 7,5 2,9 - - 4 2 WSW 1019,1 50 0 0,0
17.05.2019 01:00:00 7,5 3,1 - - 2 1 SSW 1019,8 45 - 0,0
17.05.2019 00:00:00 8,4 2,9 - - 2 1 NNE 1020,2 60 0 0,0
16.05.2019 23:00:00 8,7 2,9 - - 5 3 E 1020,5 70 0 0,0
16.05.2019 22:00:00 8,6 2,1 - - 9 5 SSW 1020,6 75 0 0,0
16.05.2019 21:00:00 9,4 2,4 - - 13 7 ESE 1020,3 75 30 0,0
16.05.2019 20:00:00 11,8 3,3 - - 16 9 ESE 1019,9 75 54 0,0
16.05.2019 19:00:00 12,8 3,9 - - 18 10 ESE 1019,6 70 18 0,0
16.05.2019 18:00:00 14,2 5,1 - - 18 10 ESE 1019,6 65 6 0,0
16.05.2019 17:00:00 13,8 3,8 - - 21 11 ESE 1019,8 75 18 0,0
16.05.2019 16:00:00 14,0 4,4 - - 18 10 ESE 1019,9 70 30 0,0
16.05.2019 15:00:00 13,8 3,4 - - 18 10 ESE 1020,5 75 24 0,0
16.05.2019 14:00:00 13,7 4,4 - - 18 10 SE 1021,2 60 48 0,0
16.05.2019 13:00:00 14,0 3,7 - - 18 10 SE 1021,8 60 60 0,0
16.05.2019 12:00:00 13,3 4,3 - - 16 9 SE 1022,1 70 60 0,0
16.05.2019 11:00:00 12,9 3,5 - - 22 12 ESE 1022,6 60 60 0,0
16.05.2019 10:00:00 11,8 3,1 11,7 9,0 16 9 SE 1023,0 45 60 0,0
16.05.2019 09:00:00 10,2 3,7 - - 13 7 SSE 1023,5 28 60 0,0
16.05.2019 08:00:00 8,4 5,2 - - 11 6 SSE 1023,9 17 60 0,0
16.05.2019 07:00:00 6,6 3,1 - - 11 6 SSE 1024,3 23 60 0,0
16.05.2019 06:00:00 3,9 1,4 - - 9 5 S 1024,6 40 18 0,0
16.05.2019 05:00:00 3,3 1,0 - - 4 2 WSW 1024,5 40 0 0,0
16.05.2019 04:00:00 3,8 1,7 - - 4 2 SSW 1024,2 26 0 0,0
16.05.2019 03:00:00 5,4 2,6 - - 2 1 E 1024,2 19 0 0,0
16.05.2019 02:00:00 9,8 6,3 - - 2 1 SW 1024,0 24 0 0,0
16.05.2019 01:00:00 11,0 7,6 - - 9 5 SE 1024,3 23 - 0,0
16.05.2019 00:00:00 9,9 7,2 - - 9 5 SSE 1024,6 25 0 0,0
15.05.2019 23:00:00 10,8 7,2 - - 13 7 S 1024,5 27 0 0,0
15.05.2019 22:00:00 11,7 7,5 - - 4 2 S 1024,5 30 0 0,0
15.05.2019 21:00:00 13,4 8,1 - - 11 6 SSW 1024,2 35 0 0,0
15.05.2019 20:00:00 16,0 8,7 - - 15 8 SSW 1024,0 40 0 0,0
15.05.2019 19:00:00 16,8 9,3 - - 15 8 SSW 1024,0 30 0 0,0
15.05.2019 18:00:00 18,9 10,3 - - 15 8 S 1024,0 29 6 0,0
15.05.2019 17:00:00 19,8 9,8 - - 5 3 ENE 1024,0 50 12 0,0
15.05.2019 16:00:00 19,7 9,1 - - 5 3 SSE 1024,4 60 6 0,0
15.05.2019 15:00:00 19,5 9,6 - - 11 6 SSE 1025,0 60 12 0,0
15.05.2019 14:00:00 19,8 9,0 - - 4 2 SSW 1025,4 55 60 0,0
15.05.2019 13:00:00 19,0 9,0 - - 9 5 SSE 1026,0 45 60 0,0
15.05.2019 12:00:00 18,3 8,4 - - 8 4 SSE 1026,7 50 60 0,0
15.05.2019 11:00:00 17,5 7,5 - - 9 5 S 1027,3 50 60 0,0
15.05.2019 10:00:00 16,2 6,0 10,9 8,7 11 6 SSW 1027,8 55 60 0,0
15.05.2019 09:00:00 15,5 5,5 - - 11 6 S 1028,0 45 60 0,0
15.05.2019 08:00:00 13,2 8,0 - - 8 4 SE 1028,3 24 60 0,0
15.05.2019 07:00:00 9,2 6,9 - - 2 1 N 1029,0 15 48 0,0
15.05.2019 06:00:00 6,9 4,9 - - 8 4 SW 1029,2 15 0 0,0
15.05.2019 05:00:00 5,7 3,8 - - 5 3 SSW 1029,7 13 0 0,0
15.05.2019 04:00:00 5,2 4,3 - - 4 2 SSW 1030,0 14 0 0,0

tt = temperature
td = dewpoint
tt -20cm = temperature -20cm
tt -100cm = temperature -100cm
ff = wind speed
dd = wind direction
ppp = reduced air pressure
vv = visibility
sd = sunshine duration
rr = precipitation

Next stations